User: anonymous   Login
Location: Nairn
(57.5833°N, 3.8667°W)
Time: 18:05:37
(UTC+00:00)
Language:

CZ-4B R/B - Orbit

View from above orbital plane
View from above orbital plane
View from above satellite
View from above satellite

Ground track
Ground track

The orbit data is extracted from the following two-line orbital elements,

1 32959U 08026B   20298.45991102 -.00000006  00000-0  13060-4 0  9997
2 32959  98.8611 243.6864 0069190 271.4378 197.9338 14.41777301653013
Epoch (UTC): 24 October 2020 11:02:16
Eccentricity: 0.0069190
inclination: 98.8611°
perigee height: 703 km
apogee height: 802 km
right ascension of ascending node: 243.6864°
argument of perigee: 271.4378°
revolutions per day: 14.41777301
mean anomaly at epoch: 197.9338°
orbit number at epoch: 65301

The dashed part of the orbit path shows where the satellite is in the earth's shadow,  

DLR